TimeEDT,TemperatureF,Dew PointF,Humidity,Sea Level PressureIn,VisibilityMPH,Wind Direction,Wind SpeedMPH,Gust SpeedMPH,PrecipitationIn,Events,Conditions,WindDirDegrees,DateUTC
12:55 AM,34.0,30.9,89,29.62,4.0,WNW,13.8,-,0.03,Snow,Light Snow,290,2013-05-12 04:55:00
1:11 AM,34.0,30.9,89,29.61,2.5,WNW,12.7,-,0.00,Snow,Light Snow,290,2013-05-12 05:11:00
1:26 AM,33.1,30.9,92,29.61,1.5,WNW,12.7,17.3,0.01,Snow,Light Snow,300,2013-05-12 05:26:00
1:55 AM,34.0,30.9,89,29.62,3.0,NW,16.1,27.6,0.05,Snow,Light Snow,310,2013-05-12 05:55:00
2:55 AM,34.0,30.9,89,29.61,4.0,NW,15.0,24.2,0.02,Snow,Light Snow,310,2013-05-12 06:55:00
3:25 AM,34.0,30.9,89,29.62,2.5,NW,17.3,23.0,0.02,Snow,Light Snow,320,2013-05-12 07:25:00
3:32 AM,34.0,30.9,89,29.63,2.5,NW,15.0,21.9,0.02,Snow,Light Snow,310,2013-05-12 07:32:00
3:46 AM,34.0,30.9,89,29.64,1.5,NW,16.1,-,0.04,Snow,Light Snow,310,2013-05-12 07:46:00
3:55 AM,34.0,30.9,89,29.65,2.0,NW,12.7,24.2,0.04,Snow,Light Snow,310,2013-05-12 07:55:00
4:02 AM,33.1,30.9,92,29.62,1.8,NNW,15.0,29.9,0.01,Snow,Light Snow,330,2013-05-12 08:02:00
4:55 AM,33.1,30.0,89,29.69,1.0,NW,19.6,27.6,0.07,Snow,Light Snow,320,2013-05-12 08:55:00
5:06 AM,33.1,30.0,89,29.67,0.8,NW,16.1,27.6,0.02,Snow,Light Snow,320,2013-05-12 09:06:00
5:18 AM,33.1,30.0,89,29.67,1.0,NW,17.3,32.2,0.03,Snow,Light Snow,320,2013-05-12 09:18:00
5:34 AM,33.1,28.9,85,29.66,1.5,NW,20.7,29.9,0.03,Snow,Light Snow,320,2013-05-12 09:34:00
5:37 AM,33.1,28.9,85,29.66,2.0,NNW,20.7,29.9,0.03,Snow,Light Snow,330,2013-05-12 09:37:00
5:43 AM,33.1,28.0,82,29.66,4.0,NNW,18.4,29.9,0.03,Snow,Light Snow,330,2013-05-12 09:43:00
5:55 AM,33.1,28.0,82,29.69,10.0,NW,16.1,31.1,0.03,,Overcast,320,2013-05-12 09:55:00
6:55 AM,33.1,26.1,75,29.72,10.0,NW,23.0,35.7,0.00,,Partly Cloudy,310,2013-05-12 10:55:00
7:55 AM,33.1,25.0,72,29.74,10.0,NW,24.2,36.8,N/A,,Overcast,310,2013-05-12 11:55:00
8:45 AM,33.1,25.0,72,29.71,10.0,NW,26.5,39.1,0.00,Rain,Light Rain,310,2013-05-12 12:45:00
8:55 AM,33.1,25.0,72,29.73,10.0,NW,23.0,35.7,0.00,Rain,Light Rain,310,2013-05-12 12:55:00
9:30 AM,32.0,24.1,73,29.73,10.0,NW,23.0,40.3,0.00,Rain,Light Rain,310,2013-05-12 13:30:00
9:47 AM,32.0,24.1,73,29.73,5.0,NW,20.7,40.3,0.00,Snow,Light Snow,310,2013-05-12 13:47:00
9:55 AM,32.0,24.1,73,29.75,4.0,WNW,23.0,42.6,0.00,Snow,Light Snow,300,2013-05-12 13:55:00
10:15 AM,32.0,25.0,75,29.73,2.0,NW,19.6,34.5,0.00,Snow,Light Snow,310,2013-05-12 14:15:00
10:23 AM,32.0,25.0,75,29.73,1.5,NW,18.4,38.0,0.00,Snow,Light Snow,320,2013-05-12 14:23:00
10:53 AM,30.2,24.8,80,29.75,0.8,WNW,24.2,40.3,0.01,Snow,Light Snow,300,2013-05-12 14:53:00
10:55 AM,30.9,24.1,76,29.77,0.5,NW,27.6,40.3,0.01,Snow,Snow,310,2013-05-12 14:55:00
11:24 AM,30.0,25.0,82,29.75,0.2,WNW,20.7,34.5,0.01,Snow,Heavy Snow,300,2013-05-12 15:24:00
11:55 AM,30.0,26.1,85,29.79,0.2,WNW,23.0,35.7,0.03,Fog-Snow,Heavy Snow,300,2013-05-12 15:55:00
12:55 PM,30.0,26.1,85,29.80,0.2,WNW,21.9,41.4,0.05,Fog-Snow,Snow,300,2013-05-12 16:55:00
1:55 PM,30.9,27.0,85,29.85,0.5,NW,25.3,34.5,0.02,Fog-Snow,Snow,310,2013-05-12 17:55:00
2:16 PM,30.9,28.0,89,29.83,0.2,WNW,16.1,27.6,0.01,Fog-Snow,Heavy Snow,300,2013-05-12 18:16:00
2:55 PM,32.0,28.0,85,29.87,0.5,WNW,18.4,32.2,0.04,Fog-Snow,Snow,300,2013-05-12 18:55:00
3:55 PM,32.0,28.0,85,29.89,0.5,NW,17.3,29.9,0.02,Fog-Snow,Snow,310,2013-05-12 19:55:00
4:11 PM,33.1,28.9,85,29.88,1.0,NW,17.3,33.4,0.01,Snow,Light Snow,310,2013-05-12 20:11:00
4:55 PM,33.1,28.9,85,29.92,1.0,WNW,16.1,26.5,0.01,Snow,Light Snow,300,2013-05-12 20:55:00
5:16 PM,33.1,28.9,85,29.90,0.8,WNW,19.6,26.5,0.00,Snow,Light Snow,300,2013-05-12 21:16:00
5:34 PM,33.1,28.9,85,29.91,1.2,NW,20.7,29.9,0.01,Snow,Light Snow,310,2013-05-12 21:34:00
5:48 PM,33.1,28.9,85,29.92,2.0,WNW,16.1,31.1,0.01,Snow,Light Snow,300,2013-05-12 21:48:00
5:55 PM,33.1,28.9,85,29.94,1.8,WNW,15.0,27.6,0.01,Snow,Light Snow,300,2013-05-12 21:55:00
6:38 PM,33.1,28.9,85,29.94,1.0,WNW,13.8,31.1,0.00,Snow,Light Snow,290,2013-05-12 22:38:00
6:55 PM,33.1,28.9,85,29.96,1.2,WNW,16.1,25.3,0.01,Snow,Light Snow,300,2013-05-12 22:55:00
7:09 PM,34.0,28.9,82,29.93,2.0,WNW,17.3,27.6,0.00,Snow,Light Snow,300,2013-05-12 23:09:00
7:19 PM,34.0,28.9,82,29.93,5.0,WNW,19.6,25.3,0.00,Snow,Light Snow,300,2013-05-12 23:19:00
7:36 PM,35.1,27.0,72,29.94,9.0,WNW,18.4,26.5,0.00,,Overcast,300,2013-05-12 23:36:00
7:55 PM,35.1,26.1,70,29.97,10.0,WNW,16.1,26.5,0.00,Rain,Light Rain,300,2013-05-12 23:55:00
8:55 PM,35.1,28.0,76,29.98,8.0,WNW,13.8,23.0,0.00,Snow,Light Snow,290,2013-05-13 00:55:00
9:55 PM,35.1,27.0,72,29.98,10.0,WNW,11.5,20.7,0.00,,Overcast,290,2013-05-13 01:55:00
10:55 PM,35.1,27.0,72,29.99,10.0,WNW,13.8,-,0.00,,Overcast,290,2013-05-13 02:55:00
11:55 PM,35.1,28.0,76,29.99,10.0,WNW,10.4,-,N/A,,Overcast,300,2013-05-13 03:55:00